[[{"header":{"parameterUnit":"m.s-1","parameterCategory":2,"la1":30.2992,"la2":30.254,"lo1":-89.0895,"lo2":-89.0443,"dy":0.0025,"dx":0.0025,"nx":19,"ny":19,"refTime":"2026-05-08T03:00:00:Z","depth":"0","parameterNumber":2,"parameterNumberName":"U-component_of_CURRENTS"},"data":[0,0,0,-0.296,-0.296,-0.2957,-0.2957,-0.2998,-0.2998,0,0,0,0,0,0,0,0,0,0,0,-0.2959,-0.2959,-0.296,-0.296,-0.2957,-0.2957,-0.2998,-0.2998,0,0,0,0,0,0,0,0,0,0,0,-0.296,-0.2959,-0.2959,-0.2959,-0.2957,-0.2957,-0.2998,-0.2993,0,0,0,0,0,0,0,0,0,0,-0.2991,-0.2975,-0.2959,-0.2959,-0.2959,-0.2957,-0.2958,-0.2992,-0.2993,-0.3007,0,-0.2991,0,-0.299,-0.3001,-0.3001,0,0,0,-0.2975,-0.2974,-0.2974,-0.2958,-0.2959,-0.2957,-0.2963,-0.2992,-0.2993,-0.3008,-0.2992,-0.2993,-0.2991,-0.3001,-0.3001,-0.2919,-0.2917,0,0,-0.2976,-0.2964,-0.2973,-0.2974,-0.294,-0.2963,-0.2962,-0.2993,-0.2987,-0.2992,-0.2994,-0.2991,-0.3001,-0.3001,-0.292,-0.2918,0,0,0,-0.2965,-0.2964,-0.2963,-0.2972,-0.2965,-0.2962,-0.2962,-0.2986,-0.2984,-0.2994,-0.2992,-0.3001,-0.3002,-0.2921,-0.2919,-0.2882,0,0,0,-0.2966,-0.2957,-0.2962,-0.2956,-0.2964,-0.2968,-0.2954,-0.2982,-0.2986,-0.2992,-0.3001,-0.3002,-0.2922,-0.292,-0.2886,-0.2891,0,0,0,-0.2963,-0.2957,-0.2951,-0.2956,-0.2948,-0.2967,-0.2968,-0.2983,-0.2984,-0.3001,-0.3002,-0.2923,-0.292,-0.2889,-0.2895,-0.2893,0,0,0,-0.2961,-0.2939,-0.295,-0.2949,-0.2947,-0.2971,-0.2968,-0.3015,-0.3038,-0.3001,-0.2922,-0.2919,-0.289,-0.2898,-0.2895,-0.274,-0.2718,0,0,-0.2934,-0.2935,-0.2944,-0.2954,-0.2944,-0.2973,-0.2944,-0.2985,-0.2983,-0.2922,-0.292,-0.2885,-0.2896,-0.2893,-0.2582,-0.2564,0,0,0,-0.294,-0.29,-0.2924,-0.2908,-0.2958,-0.2936,-0.2959,-0.2938,-0.2884,-0.2975,-0.2839,-0.2846,-0.2847,-0.2756,-0.2741,-0.269,-0.2907,-0.2907,-0.2907,-0.2786,-0.2831,-0.2815,-0.2841,-0.2869,-0.2896,-0.2887,-0.2832,-0.2857,-0.28,-0.2781,-0.2708,-0.2605,-0.2593,-0.2541,-0.273,-0.273,-0.2729,-0.2729,-0.2667,-0.2637,-0.2696,-0.2696,-0.2731,-0.2715,-0.273,-0.2736,-0.2678,-0.2682,-0.2685,-0.2677,-0.2575,-0.2524,-0.2726,-0.2727,-0.2727,-0.2727,-0.2728,-0.2512,-0.2508,-0.2536,-0.2548,-0.2552,-0.2616,-0.2612,-0.2641,-0.264,-0.2641,-0.2566,-0.2565,-0.2557,-0.2649,-0.2649,-0.2649,-0.2649,-0.2649,-0.2649,-0.2351,-0.238,-0.2359,-0.241,-0.2425,-0.2475,-0.2557,-0.2566,-0.2545,-0.2516,-0.2514,-0.2487,-0.2685,-0.273,-0.2649,-0.2649,-0.2649,-0.2649,-0.2649,-0.2133,-0.2206,-0.2162,-0.2177,-0.2238,-0.2222,-0.237,-0.2354,-0.2396,-0.234,-0.2279,-0.2443,-0.2453,-0.2462,-0.25,-0.2366,-0.2366,-0.2366,-0.2366,-0.1996,-0.203,-0.1974,-0.1973,-0.2004,-0.2086,-0.1988,-0.2031,-0.2069,-0.2043,-0.2137,-0.2092,-0.2106,-0.2097,-0.2114,-0.2145,-0.1924,-0.1924,-0.1924,-0.1856,-0.1881,-0.1787,-0.1837,-0.1875,-0.1892,-0.1731,-0.1689,-0.1798,-0.191,-0.2098,-0.2117,-0.2063,-0.2089,-0.2085,-0.2113,-0.217,0,0]},{"header":{"parameterUnit":"m.s-1","parameterCategory":2,"la1":30.2992,"la2":30.254,"lo1":-89.0895,"lo2":-89.0443,"dy":0.0025,"dx":0.0025,"nx":19,"ny":19,"refTime":"2026-05-08T03:00:00:Z","depth":"0","parameterNumber":3,"parameterNumberName":"V-component_of_CURRENTS"},"data":[0,0,0,-0.0474,-0.0473,-0.0396,-0.0396,-0.0168,-0.0166,0,0,0,0,0,0,0,0,0,0,0,-0.0493,-0.0493,-0.0474,-0.0473,-0.0396,-0.0396,-0.0168,-0.0166,0,0,0,0,0,0,0,0,0,0,0,-0.0493,-0.0493,-0.0493,-0.0473,-0.0396,-0.0396,-0.0169,-0.0253,0,0,0,0,0,0,0,0,0,0,-0.0341,-0.0396,-0.0493,-0.0493,-0.0472,-0.0397,-0.0396,-0.0258,-0.0248,-0.0172,0,-0.0173,0,-0.0173,-0.015,-0.0149,0,0,0,-0.045,-0.0406,-0.038,-0.0493,-0.0472,-0.0397,-0.0424,-0.0253,-0.0241,-0.0158,-0.017,-0.0163,-0.0169,-0.0148,-0.0147,0.0041,0.0041,0,0,-0.0454,-0.0475,-0.0389,-0.0373,-0.0465,-0.0427,-0.0422,-0.0247,-0.0239,-0.017,-0.0158,-0.0166,-0.0146,-0.0145,0.004,0.0041,0,0,0,-0.0482,-0.0478,-0.0459,-0.0381,-0.0383,-0.0425,-0.042,-0.0247,-0.024,-0.0156,-0.0163,-0.0145,-0.0142,0.004,0.004,-0.0088,0,0,0,-0.0483,-0.0496,-0.0461,-0.0472,-0.0388,-0.0335,-0.0424,-0.0252,-0.0233,-0.0164,-0.0145,-0.014,0.004,0.004,-0.0085,-0.0152,0,0,0,-0.0495,-0.0497,-0.0492,-0.0474,-0.0452,-0.0339,-0.0321,-0.0248,-0.0237,-0.0148,-0.0139,0.004,0.004,-0.0083,-0.0146,-0.0142,0,0,0,-0.0512,-0.0527,-0.0493,-0.0501,-0.0453,-0.0396,-0.0323,-0.026,-0.0191,-0.0144,0.004,0.004,-0.0082,-0.0143,-0.0139,-0.0005,-0.0006,0,0,-0.0544,-0.0531,-0.0535,-0.0503,-0.0482,-0.0404,-0.0364,-0.0246,-0.0151,-0.0005,-0.0001,-0.0086,-0.0146,-0.0141,0.0029,0.0026,0,0,0,-0.0553,-0.0558,-0.0541,-0.0523,-0.0464,-0.0425,-0.031,-0.0255,-0.0148,-0.0113,-0.0038,-0.007,-0.0064,0.0025,0.0023,0.0238,0.0043,0.0043,0.0043,-0.0625,-0.0594,-0.06,-0.0556,-0.0515,-0.0419,-0.0376,-0.0272,-0.0168,-0.0144,-0.014,-0.0177,-0.0082,-0.0082,0.0137,-0.0091,-0.0091,-0.0092,-0.0092,-0.0688,-0.0699,-0.0657,-0.0654,-0.0594,-0.0547,-0.0431,-0.0371,-0.0276,-0.0207,-0.0193,-0.0071,-0.0092,0.0143,-0.0099,-0.0098,-0.0097,-0.0096,-0.0096,-0.0743,-0.0749,-0.0741,-0.0743,-0.0726,-0.0643,-0.0611,-0.0518,-0.0391,-0.0385,-0.0205,-0.0201,-0.0022,-0.0351,-0.0352,-0.0352,-0.0352,-0.0352,-0.0353,-0.081,-0.0803,-0.0839,-0.0836,-0.0843,-0.0824,-0.0716,-0.0632,-0.0446,-0.0323,-0.032,0.0018,-0.0255,-0.0277,-0.0357,-0.0356,-0.0356,-0.0355,-0.0355,-0.0876,-0.088,-0.0938,-0.0959,-0.0973,-0.0921,-0.0834,-0.0573,-0.0472,-0.0339,0.0055,-0.0255,-0.019,-0.0184,-0.0201,-0.0257,-0.0257,-0.0257,-0.0257,-0.0929,-0.0934,-0.1015,-0.106,-0.1073,-0.0972,-0.0754,-0.0477,-0.0056,0.0178,0.0213,0.0324,0.0311,0.0411,0.0404,0.0403,0.0501,0.0502,0.0503,-0.0974,-0.0998,-0.1058,-0.1098,-0.1108,-0.0973,-0.069,-0.0301,0.0296,0.055,0.0479,0.0447,0.0625,0.0587,0.0758,0.073,0.0732,0,0]}],[{"header":{"parameterUnit":"m.s-1","parameterCategory":2,"la1":30.2992,"la2":30.254,"lo1":-89.0895,"lo2":-89.0443,"dy":0.0025,"dx":0.0025,"nx":19,"ny":19,"refTime":"2026-05-08T03:00:00:Z","depth":"2","parameterNumber":2,"parameterNumberName":"U-component_of_CURRENTS"},"data":[0,0,0,-0.2594,-0.2594,-0.2618,-0.2618,-0.2621,-0.2621,0,0,0,0,0,0,0,0,0,0,0,-0.2583,-0.2583,-0.2594,-0.2594,-0.2618,-0.2618,-0.2621,-0.2621,0,0,0,0,0,0,0,0,0,0,0,-0.2583,-0.2583,-0.2584,-0.2594,-0.2618,-0.2618,-0.2621,-0.261,0,0,0,0,0,0,0,0,0,0,-0.259,-0.2581,-0.2583,-0.2584,-0.2595,-0.2618,-0.2618,-0.261,-0.2611,-0.2602,0,-0.2605,0,-0.2613,-0.262,-0.262,0,0,0,-0.2595,-0.2581,-0.2591,-0.2584,-0.2595,-0.2618,-0.2607,-0.261,-0.2611,-0.2603,-0.2605,-0.2606,-0.2613,-0.262,-0.262,-0.254,-0.2539,0,0,-0.2593,-0.2584,-0.259,-0.2591,-0.2599,-0.2607,-0.2608,-0.2611,-0.2609,-0.2605,-0.2606,-0.2613,-0.262,-0.262,-0.2541,-0.254,0,0,0,-0.2589,-0.2583,-0.2593,-0.2591,-0.2597,-0.2607,-0.2609,-0.2608,-0.2613,-0.2606,-0.2613,-0.262,-0.262,-0.2542,-0.254,-0.2529,0,0,0,-0.2589,-0.2581,-0.2593,-0.2587,-0.2597,-0.2606,-0.2606,-0.2613,-0.2614,-0.2613,-0.262,-0.262,-0.2542,-0.2541,-0.2531,-0.2541,0,0,0,-0.2583,-0.258,-0.2583,-0.2586,-0.2597,-0.2606,-0.2611,-0.2613,-0.2618,-0.262,-0.262,-0.2543,-0.2541,-0.2533,-0.2543,-0.2543,0,0,0,-0.2572,-0.2568,-0.2583,-0.2589,-0.2597,-0.2612,-0.2611,-0.2641,-0.265,-0.262,-0.2542,-0.254,-0.2534,-0.2545,-0.2544,-0.2384,-0.2366,0,0,-0.256,-0.2566,-0.2573,-0.2587,-0.2576,-0.2609,-0.2585,-0.2609,-0.2604,-0.2542,-0.254,-0.253,-0.2543,-0.2543,-0.227,-0.2255,0,0,0,-0.2566,-0.2541,-0.2554,-0.2548,-0.2583,-0.2573,-0.259,-0.2576,-0.2535,-0.2597,-0.2493,-0.2501,-0.2502,-0.2406,-0.2394,-0.2531,-0.2531,-0.2531,-0.2532,-0.2462,-0.2491,-0.2477,-0.2493,-0.2515,-0.2539,-0.2535,-0.25,-0.2509,-0.2475,-0.2464,-0.2418,-0.2311,-0.2301,-0.2423,-0.2423,-0.2423,-0.2423,-0.2423,-0.2374,-0.2346,-0.2393,-0.2391,-0.2422,-0.2415,-0.2429,-0.2439,-0.24,-0.2399,-0.2401,-0.2363,-0.2287,-0.2421,-0.2421,-0.2422,-0.2422,-0.2422,-0.2422,-0.2249,-0.2244,-0.227,-0.2284,-0.2299,-0.2352,-0.2357,-0.2386,-0.2385,-0.2391,-0.2298,-0.2296,-0.2447,-0.2397,-0.2397,-0.2397,-0.2397,-0.2397,-0.2397,-0.2114,-0.2142,-0.2129,-0.218,-0.2198,-0.2249,-0.2326,-0.2333,-0.2304,-0.2272,-0.227,-0.241,-0.241,-0.2444,-0.2397,-0.2397,-0.2397,-0.2397,-0.2397,-0.1927,-0.1993,-0.1962,-0.1981,-0.2043,-0.2021,-0.2162,-0.2133,-0.217,-0.2108,-0.2194,-0.2199,-0.2195,-0.2202,-0.2229,-0.2129,-0.2129,-0.2129,-0.2129,-0.1809,-0.184,-0.18,-0.1803,-0.1833,-0.1897,-0.1788,-0.1794,-0.1867,-0.1866,-0.1878,-0.1827,-0.1843,-0.1819,-0.1835,-0.1855,-0.1658,-0.1657,-0.1657,-0.1688,-0.1712,-0.1635,-0.1683,-0.1716,-0.1713,-0.153,-0.1402,-0.146,-0.1642,-0.184,-0.2089,-0.2044,-0.2058,-0.2047,-0.2062,-0.2105,0,0]},{"header":{"parameterUnit":"m.s-1","parameterCategory":2,"la1":30.2992,"la2":30.254,"lo1":-89.0895,"lo2":-89.0443,"dy":0.0025,"dx":0.0025,"nx":19,"ny":19,"refTime":"2026-05-08T03:00:00:Z","depth":"2","parameterNumber":3,"parameterNumberName":"V-component_of_CURRENTS"},"data":[0,0,0,-0.0488,-0.0487,-0.0427,-0.0426,-0.0259,-0.0258,0,0,0,0,0,0,0,0,0,0,0,-0.0502,-0.0502,-0.0488,-0.0487,-0.0427,-0.0426,-0.0259,-0.0258,0,0,0,0,0,0,0,0,0,0,0,-0.0502,-0.0502,-0.0502,-0.0487,-0.0427,-0.0426,-0.026,-0.0323,0,0,0,0,0,0,0,0,0,0,-0.0391,-0.0433,-0.0502,-0.0502,-0.0487,-0.0427,-0.0426,-0.0327,-0.0319,-0.0267,0,-0.0266,0,-0.0267,-0.0246,-0.0246,0,0,0,-0.0468,-0.044,-0.0419,-0.0502,-0.0487,-0.0427,-0.0449,-0.0323,-0.0314,-0.0256,-0.0264,-0.0259,-0.0264,-0.0245,-0.0244,-0.0092,-0.0092,0,0,-0.0472,-0.0489,-0.0425,-0.0414,-0.048,-0.0451,-0.0447,-0.0319,-0.0314,-0.0264,-0.0255,-0.0261,-0.0244,-0.0243,-0.0093,-0.0092,0,0,0,-0.0494,-0.0492,-0.0475,-0.0419,-0.042,-0.045,-0.0445,-0.0319,-0.0313,-0.0254,-0.0259,-0.0243,-0.0241,-0.0093,-0.0092,-0.0171,0,0,0,-0.0495,-0.0506,-0.0477,-0.0486,-0.0424,-0.0384,-0.0449,-0.0322,-0.0308,-0.026,-0.0243,-0.0239,-0.0093,-0.0093,-0.017,-0.0217,0,0,0,-0.0503,-0.0507,-0.0502,-0.0487,-0.047,-0.0387,-0.0373,-0.0319,-0.0311,-0.0245,-0.0239,-0.0094,-0.0093,-0.0169,-0.0214,-0.0196,0,0,0,-0.0518,-0.0533,-0.0503,-0.0514,-0.0471,-0.0435,-0.0374,-0.0335,-0.0286,-0.0242,-0.0093,-0.0092,-0.0169,-0.0212,-0.0194,-0.0111,-0.0109,0,0,-0.0549,-0.0537,-0.0543,-0.0515,-0.0504,-0.0442,-0.0405,-0.0318,-0.0248,-0.0127,-0.0124,-0.017,-0.0214,-0.0195,-0.0059,-0.006,0,0,0,-0.0561,-0.0564,-0.0554,-0.054,-0.05,-0.0454,-0.037,-0.0317,-0.0219,-0.0218,-0.013,-0.0154,-0.014,-0.0086,-0.0085,-0.0088,-0.0088,-0.0088,-0.0089,-0.062,-0.0596,-0.0603,-0.0564,-0.0533,-0.0448,-0.0398,-0.0299,-0.0231,-0.0196,-0.0188,-0.0189,-0.013,-0.0129,-0.0145,-0.0145,-0.0145,-0.0146,-0.0146,-0.0672,-0.0682,-0.0639,-0.0639,-0.0576,-0.0533,-0.0409,-0.0354,-0.0251,-0.0211,-0.0192,-0.0134,-0.0134,-0.0151,-0.015,-0.0149,-0.0149,-0.0148,-0.0148,-0.0719,-0.0722,-0.0714,-0.0709,-0.0678,-0.0597,-0.0545,-0.0446,-0.0327,-0.0309,-0.0194,-0.0191,-0.0248,-0.0285,-0.0285,-0.0285,-0.0285,-0.0285,-0.0285,-0.0779,-0.0768,-0.0799,-0.0783,-0.0785,-0.0751,-0.0629,-0.0543,-0.0372,-0.0267,-0.0264,-0.0235,-0.023,-0.0253,-0.0287,-0.0287,-0.0287,-0.0286,-0.0286,-0.084,-0.0843,-0.0892,-0.0908,-0.0906,-0.086,-0.075,-0.0513,-0.0405,-0.029,-0.0212,-0.0213,-0.0172,-0.0169,-0.0188,-0.0204,-0.0204,-0.0204,-0.0204,-0.0891,-0.0894,-0.0968,-0.1005,-0.1008,-0.0913,-0.074,-0.0486,-0.0254,-0.0144,-0.0147,-0.0109,-0.0113,-0.0066,-0.0066,-0.0082,-0.007,-0.007,-0.007,-0.0934,-0.0956,-0.1014,-0.1048,-0.1051,-0.0939,-0.0729,-0.0411,-0.0109,-0.007,-0.0175,-0.0185,-0.0133,-0.0138,-0.0068,-0.0067,-0.0092,0,0]}],[{"header":{"parameterUnit":"m.s-1","parameterCategory":2,"la1":30.2992,"la2":30.254,"lo1":-89.0895,"lo2":-89.0443,"dy":0.0025,"dx":0.0025,"nx":19,"ny":19,"refTime":"2026-05-08T03:00:00:Z","depth":"4","parameterNumber":2,"parameterNumberName":"U-component_of_CURRENTS"},"data":[0,0,0,-0.1819,-0.1823,-0.1975,-0.1975,-0.1976,-0.1976,0,0,0,0,0,0,0,0,0,0,0,-0.1774,-0.1776,-0.1819,-0.1824,-0.1975,-0.1975,-0.1976,-0.1976,0,0,0,0,0,0,0,0,0,0,0,-0.1773,-0.1775,-0.1777,-0.1824,-0.1975,-0.1975,-0.1976,-0.1905,0,0,0,0,0,0,0,0,0,0,-0.178,-0.1773,-0.1775,-0.1777,-0.1825,-0.1974,-0.1975,-0.1903,-0.1909,-0.1859,0,-0.1914,0,-0.1948,-0.1973,-0.1973,0,0,0,-0.1802,-0.1768,-0.1813,-0.1778,-0.1827,-0.1974,-0.19,-0.1908,-0.1914,-0.1866,-0.1915,-0.1916,-0.1948,-0.1973,-0.1973,-0.1906,-0.1905,0,0,-0.1794,-0.1785,-0.1809,-0.1818,-0.1904,-0.1896,-0.1905,-0.1914,-0.1929,-0.1915,-0.1917,-0.1948,-0.1973,-0.1972,-0.1906,-0.1906,0,0,0,-0.1784,-0.178,-0.1827,-0.1817,-0.1862,-0.1901,-0.1912,-0.1929,-0.1948,-0.1917,-0.1948,-0.1972,-0.1972,-0.1907,-0.1906,-0.1959,0,0,0,-0.1778,-0.1776,-0.1824,-0.1818,-0.1864,-0.1924,-0.1926,-0.1947,-0.195,-0.1948,-0.1972,-0.1972,-0.1907,-0.1906,-0.1959,-0.1973,0,0,0,-0.176,-0.1773,-0.1804,-0.1817,-0.1893,-0.1926,-0.1945,-0.1949,-0.1968,-0.1973,-0.1972,-0.1908,-0.1907,-0.1958,-0.1972,-0.1974,0,0,0,-0.1724,-0.1768,-0.1805,-0.185,-0.1892,-0.1913,-0.1946,-0.197,-0.1975,-0.1972,-0.1907,-0.1906,-0.1958,-0.1971,-0.1974,-0.1747,0,0,0,-0.1746,-0.1771,-0.179,-0.1825,-0.1845,-0.1889,-0.1904,-0.1944,-0.1934,-0.1888,-0.1889,-0.1959,-0.1972,-0.1974,-0.1682,0,0,0,0,-0.1771,-0.1782,-0.1791,-0.1827,-0.1853,-0.189,-0.1921,-0.1931,-0.1943,-0.194,-0.1921,-0.1926,-0.1927,-0.1791,-0.1901,-0.1901,-0.1901,-0.1901,-0.1901,-0.1742,-0.1763,-0.1778,-0.1807,-0.1831,-0.1881,-0.1909,-0.1922,-0.1915,-0.1927,-0.1942,-0.194,-0.1795,-0.1914,-0.1914,-0.1915,-0.1915,-0.1915,-0.1915,-0.171,-0.17,-0.1759,-0.1784,-0.1838,-0.1862,-0.1908,-0.1939,-0.1951,-0.1942,-0.1941,-0.1821,-0.1919,-0.1918,-0.1918,-0.1917,-0.1917,-0.1917,-0.1916,-0.1623,-0.1627,-0.1682,-0.1743,-0.1809,-0.1875,-0.1913,-0.1964,-0.1981,-0.1998,-0.1831,-0.196,-0.1987,-0.1999,-0.1999,-0.1999,-0.1999,-0.1999,-0.1999,-0.1509,-0.1563,-0.1598,-0.1691,-0.1742,-0.1817,-0.1917,-0.1926,-0.1968,-0.1844,-0.2007,-0.1968,-0.1965,-0.1989,-0.2,-0.2,-0.2,-0.2,-0.2,-0.1368,-0.144,-0.1466,-0.1524,-0.1633,-0.1674,-0.182,-0.1786,-0.1775,-0.1703,-0.175,-0.1762,-0.1718,-0.1722,-0.1736,-0.1673,-0.167,-0.1667,0,-0.1275,-0.1313,-0.1348,-0.1395,-0.1433,-0.1565,-0.1506,-0.1553,-0.1575,-0.1516,-0.1769,-0.1823,-0.1829,-0.1783,-0.1781,-0.1797,0,0,0,-0.1192,-0.1225,-0.1207,-0.129,-0.1324,-0.1355,-0.1474,-0.1416,-0.1586,-0.1505,-0.1595,-0.1614,-0.1875,-0.2003,-0.1965,-0.1961,-0.1998,0,0]},{"header":{"parameterUnit":"m.s-1","parameterCategory":2,"la1":30.2992,"la2":30.254,"lo1":-89.0895,"lo2":-89.0443,"dy":0.0025,"dx":0.0025,"nx":19,"ny":19,"refTime":"2026-05-08T03:00:00:Z","depth":"4","parameterNumber":3,"parameterNumberName":"V-component_of_CURRENTS"},"data":[0,0,0,-0.0411,-0.0411,-0.0399,-0.0399,-0.0329,-0.0329,0,0,0,0,0,0,0,0,0,0,0,-0.0412,-0.0412,-0.0411,-0.0411,-0.0399,-0.0399,-0.0329,-0.0329,0,0,0,0,0,0,0,0,0,0,0,-0.0412,-0.0412,-0.0412,-0.0411,-0.0399,-0.0398,-0.033,-0.0349,0,0,0,0,0,0,0,0,0,0,-0.0367,-0.0387,-0.0412,-0.0412,-0.0411,-0.0399,-0.0398,-0.0351,-0.0348,-0.0324,0,-0.0329,0,-0.0333,-0.0324,-0.0324,0,0,0,-0.0399,-0.0389,-0.0381,-0.0412,-0.0411,-0.0399,-0.0401,-0.035,-0.0347,-0.032,-0.0328,-0.0326,-0.0332,-0.0324,-0.0323,-0.0242,-0.0242,0,0,-0.04,-0.041,-0.0384,-0.038,-0.0416,-0.0402,-0.0401,-0.0348,-0.035,-0.0328,-0.0324,-0.033,-0.0323,-0.0323,-0.0243,-0.0242,0,0,0,-0.041,-0.041,-0.0405,-0.0382,-0.0387,-0.0401,-0.0401,-0.0352,-0.0349,-0.0324,-0.033,-0.0323,-0.0322,-0.0243,-0.0242,-0.0244,0,0,0,-0.041,-0.0417,-0.0405,-0.0411,-0.0389,-0.0379,-0.0405,-0.0353,-0.0347,-0.033,-0.0323,-0.0321,-0.0243,-0.0243,-0.0245,-0.0261,0,0,0,-0.0411,-0.0417,-0.0417,-0.0411,-0.0411,-0.038,-0.0374,-0.0352,-0.0351,-0.0324,-0.0321,-0.0244,-0.0243,-0.0246,-0.0262,-0.0224,0,0,0,-0.0418,-0.0435,-0.0418,-0.0438,-0.0412,-0.0414,-0.0375,-0.0376,-0.036,-0.0322,-0.0243,-0.0242,-0.0246,-0.0262,-0.0225,-0.0276,0,0,0,-0.0444,-0.0438,-0.045,-0.0435,-0.0443,-0.0415,-0.0393,-0.0359,-0.033,-0.0256,-0.0254,-0.0245,-0.0262,-0.0224,-0.0226,0,0,0,0,-0.0462,-0.0466,-0.0468,-0.0467,-0.046,-0.042,-0.0391,-0.0346,-0.0277,-0.0318,-0.0227,-0.0237,-0.0214,-0.0245,-0.0238,-0.0238,-0.0239,-0.0239,-0.0239,-0.0499,-0.049,-0.0502,-0.0482,-0.0472,-0.042,-0.037,-0.0295,-0.0281,-0.0239,-0.0225,-0.0182,-0.0215,-0.0201,-0.0201,-0.0201,-0.0201,-0.0201,-0.0201,-0.0531,-0.0537,-0.0511,-0.0522,-0.0472,-0.0446,-0.033,-0.029,-0.019,-0.0192,-0.0168,-0.0229,-0.0201,-0.0201,-0.0201,-0.0201,-0.0201,-0.0201,-0.0201,-0.0555,-0.0555,-0.0561,-0.056,-0.0526,-0.0466,-0.0397,-0.0304,-0.0206,-0.0175,-0.0192,-0.0174,-0.0188,-0.0162,-0.0162,-0.0162,-0.0162,-0.0162,-0.0162,-0.0582,-0.0581,-0.0613,-0.0601,-0.0606,-0.0565,-0.0444,-0.0367,-0.0256,-0.0204,-0.0183,-0.0169,-0.017,-0.0185,-0.016,-0.0161,-0.0161,-0.0161,-0.0161,-0.0612,-0.0627,-0.0671,-0.0692,-0.069,-0.0646,-0.0547,-0.0383,-0.0298,-0.0215,-0.0196,-0.0195,-0.0196,-0.0196,-0.0212,-0.0194,-0.0195,-0.0195,0,-0.0642,-0.0648,-0.0724,-0.0763,-0.0758,-0.0689,-0.0584,-0.0472,-0.0317,-0.0324,-0.0297,-0.0284,-0.028,-0.0291,-0.0292,-0.0316,0,0,0,-0.0666,-0.0689,-0.0748,-0.0791,-0.0788,-0.0645,-0.055,-0.0495,-0.0351,-0.0264,-0.021,-0.0206,-0.0226,-0.0156,-0.0153,-0.0155,-0.0177,0,0]}]]